Weather WX

World > North America > United States > Pennsylvania

Blainsport, Pennsylvania Regional Weather

Lat: 40.28N, Lon: 76.14W
Wx Zone: PAZ066
Warning FLW WEATHER ALERT - FLASH FLOOD WATCH (More Info. Click Here) Warning
Feedback

Blainsport, PA Regional Weather

Expires:201906181100;;674615
ASUS41 KPHI 181011
RWRPHI

REGIONAL WEATHER ROUNDUP
NATIONAL WEATHER SERVICE MOUNT HOLLY NJ
600 AM EDT TUE JUN 18 2019

NOTE:  "FAIR" INDICATES FEW OR NO CLOUDS BELOW 12,000 FEET WITH NO
SIGNIFICANT WEATHER AND/OR OBSTRUCTIONS TO VISIBILITY.

 * = STATION DOES NOT REPORT PRECIPITATION (E.G. RAIN, SNOW, ETC.) 
        OR FOG.


PAZ043-044-047-054-055-060>062-066>071-181100-
EASTERN PENNSYLVANIA
  
CITY           SKY/WX    TMP DP  RH WIND       PRES   REMARKS
PHILADELPHIA   LGT RAIN  67  67 100 S3        29.95S                  
NORTH PHILA    CLOUDY    72  69  90 SE5       29.96S FOG              
BLUE BELL*     LGT RAIN  70  69  99 CALM      29.95S FOG              
DOYLESTOWN     FOG       69  67  93 CALM      29.94S VSB 3/4          
QUAKERTOWN*    CLOUDY    68  68 100 CALM      29.97  FOG              
PERKASIE*      RAIN      68  68 100 NW3       29.99R VSB 1/2          
POTTSTOWN      LGT RAIN  68  68 100 CALM      29.97R FOG              
LANCASTER      CLOUDY    71  70  96 E3        29.94F FOG              
COATESVILLE    FOG       70  70 100 CALM      29.98R VSB<1/4          
WEST CHESTER   LGT RAIN  70  68  94 CALM      29.96S                  
READING        RAIN      69  69 100 CALM      29.94S VSB 1            
ALLENTOWN      RAIN      70  67  90 CALM      29.95R FOG              
QN CITY/ALNTWN RAIN     N/A N/A N/A CALM      29.97R                  
MOUNT POCONO   LGT RAIN  63  63 100 CALM      29.99S FOG              
HAZLETON       RAIN      64  63  94 CALM      30.01R                  
LEHIGHTON      RAIN      66  66 100 CALM      29.96R                  
WILKES BARRE   CLOUDY    64  64 100 E3        29.95F                  

$$

SKY/WX - Weather  TMP - Temperature  DP - Dew Point  RH - Relative Humidity
WIND - Wind Direction/Speed PRES - Barometric Pressure VSB - Visibility
WCI - Wind Chill Index E13G22 Wind - East Wind 13 mph/Gusts of 22 mph